SB KEPS @ AMSAT $ORB26126.1 2Line Orbital Elements 26126.AMSAT QST de W1STR AMSAT Orbital Elements for Amateur Satellites in TLE Format From Orbital Analysis Office New England Sci-Tech STEM Education Center Natick MA May 06, 2026 To all radio amateurs These element sets describe the orbits of various satellites in use by the amateur radio community. For details see: www.amsat.org/keplerian-elements-formats/ A daily update of element sets is available at: www.amsat.org/tle/daily-bulletin.txt or without bulletin text: www.amsat.org/tle/dailytle.txt AO-07 1 07530U 74089B 26125.54439145 -.00000051 00000-0 -30788-4 0 9992 2 07530 101.9923 138.3437 0012044 211.0056 271.0198 12.53697392355173 UO-11 1 14781U 84021B 26126.13549464 .00001298 00000-0 13805-3 0 9999 2 14781 97.8030 92.1913 0006839 334.3483 25.7395 14.90684704250864 AO-27 1 22825U 93061C 26126.18520403 .00000098 00000-0 54136-4 0 9998 2 22825 98.6895 193.6095 0007680 217.2628 142.8022 14.30930817700998 FO-29 1 24278U 96046B 26126.16739327 -.00000038 00000-0 -19737-5 0 9998 2 24278 98.5286 340.7843 0349402 205.3315 153.0334 13.53272318467486 GO-32 1 25397U 98043D 26125.49700665 .00000062 00000-0 46969-4 0 9999 2 25397 99.0064 117.1819 0001390 27.1219 333.0031 14.24419970445253 ISS 1 25544U 98067A 26126.19956580 .00006859 00000-0 13198-3 0 9993 2 25544 51.6304 147.9377 0007403 28.6982 331.4412 15.49115842565248 NO-44 1 26931U 01043C 26126.04229596 .00000131 00000-0 79932-4 0 9992 2 26931 67.0521 353.2782 0006357 263.7726 96.2652 14.31939739284416 SO-50 1 27607U 02058C 26126.07618470 .00001260 00000-0 16561-3 0 9998 2 27607 64.5522 259.2647 0075639 270.1486 89.0953 14.82957261258218 CO-55 1 27844U 03031E 26125.95823024 .00000291 00000-0 14490-3 0 9994 2 27844 98.6750 135.0469 0008601 313.5681 46.4783 14.24309456185668 RS-22 1 27939U 03042A 26126.31637325 .00000935 00000-0 15237-3 0 9994 2 27939 98.3466 309.4946 0012247 46.1241 38.6642 14.73394159209384 CO-65 1 32785U 08021C 26126.21452727 .00005144 00000-0 32874-3 0 9994 2 32785 97.8269 106.7803 0009447 160.7552 199.4034 15.09061568978862 CO-66 1 32791U 08021J 26125.48367313 .00019885 00000-0 65895-3 0 9991 2 32791 97.7528 121.3956 0005097 99.4422 260.7394 15.31314764980755 RS-30 1 32953U 08025A 26126.16938714 .00000063 00000-0 38200-3 0 9998 2 32953 82.5076 21.5760 0020494 44.6853 315.5875 12.43178007814473 SRMSAT 1 37841U 11058D 26125.89120411 .00000415 00000-0 81577-4 0 9992 2 37841 19.9732 315.4812 0011782 98.6658 33.5392 14.11566136751834 ZACUBE-1 1 39417U 13066B 26125.80992048 .00005477 00000-0 42717-3 0 9993 2 39417 97.8131 87.9184 0042921 35.5949 324.8124 15.00858403674370 Delfi-N3xt 1 39428U 13066N 26126.20769093 .00007750 00000-0 68240-3 0 9997 2 39428 97.8352 46.5728 0074885 348.0590 11.8851 14.94603796668356 GOMX-1 1 39430U 13066Q 26126.30552302 .00001531 00000-0 23664-3 0 9996 2 39430 97.6506 329.4077 0128051 211.4842 147.8658 14.69298280663761 LO-74 1 39440U 13066AA 26125.78981832 .00003633 00000-0 33993-3 0 9993 2 39440 97.8882 74.6084 0058296 166.4702 193.8096 14.93455257670665 AO-73 1 39444U 13066AE 26125.82237860 .00008335 00000-0 52424-3 0 9991 2 39444 97.8256 96.4094 0036234 351.1142 8.9440 15.08934886673272 DTUSAT-2 1 40030U 14033W 26125.95964031 .00007155 00000-0 39255-3 0 9996 2 40030 98.0870 121.0274 0008641 31.5638 328.6109 15.14471186646297 LILACSAT-2 1 40908U 15049K 26126.26421344 .00017708 00000-0 31608-3 0 9997 2 40908 97.4702 161.5461 0008252 57.8249 302.3802 15.50085993589250 Horyu-4 1 41340U 16012D 26126.03289226 .00157766 00000-0 94472-3 0 9992 2 41340 30.9901 23.2242 0006201 326.0602 33.9657 15.76225974564128 Lapan A3 1 41603U 16040E 26126.28428054 .00003789 00000-0 12165-3 0 9990 2 41603 97.1493 123.8179 0011019 156.1995 203.9759 15.32841428548390 CAS-2T 1 41847U 16066G 26126.19702208 .00000742 00000-0 11452-3 0 9998 2 41847 98.3826 202.4077 0340900 256.9287 99.3651 14.44582560498732 TechnoSat 1 42829U 17042E 26126.02485774 .00002861 00000-0 20691-3 0 9991 2 42829 97.4249 285.3072 0016197 234.0858 125.8866 15.04705621480361 AO-91 1 43017U 17073E 26126.12710726 .00009303 00000-0 40890-3 0 9995 2 43017 97.4752 354.2182 0154096 113.6033 248.1464 15.11956834459031 S-Net D 1 43186U 18014G 26126.16558280 .00004834 00000-0 25296-3 0 9994 2 43186 97.5387 31.2256 0008972 153.0496 207.1205 15.16281801452399 S-Net B 1 43187U 18014H 26126.17621556 .00004560 00000-0 23899-3 0 9996 2 43187 97.5393 31.2215 0009737 149.4789 210.7012 15.16252915452396 S-Net A 1 43188U 18014J 26125.70271953 .00005436 00000-0 28391-3 0 9992 2 43188 97.5406 30.9520 0009536 151.6225 208.5529 15.16285035452324 S-Net C 1 43189U 18014K 26126.17986164 .00004463 00000-0 23396-3 0 9991 2 43189 97.5421 31.4943 0011167 144.5891 215.6085 15.16244171450948 Ten-Koh 1 43677U 18084G 26126.24364669 .00001784 00000-0 13832-3 0 9995 2 43677 98.0785 316.8463 0007493 255.8990 104.1401 15.02763455409864 PO-101 1 43678U 18084H 26126.28696625 .00002603 00000-0 21295-3 0 9993 2 43678 98.1080 320.7045 0012409 315.6811 44.3417 15.00245883409932 QO-100 1 43700U 18090A 26126.19612579 .00000152 00000-0 00000-0 0 9997 2 43700 0.0127 273.4008 0001646 159.8741 247.2023 1.00271840 27251 MinXSS-2 1 43758U 18099A 26126.13491293 .00031952 00000-0 69480-3 0 9993 2 43758 97.4548 201.2781 0008147 66.7683 293.4422 15.44233064407631 AO-95 1 43770U 18099N 26126.24845690 .00011024 00000-0 43312-3 0 9997 2 43770 97.4406 186.6737 0010256 131.2571 228.9552 15.25815987406829 SNUSat 2 1 43782U 18099AA 26126.11106903 .00008774 00000-0 39556-3 0 9996 2 43782 97.4086 180.1552 0011997 85.9906 274.2701 15.21200438406634 SnugLite 1 43784U 18099AC 26126.13040691 .00011348 00000-0 44015-3 0 9998 2 43784 97.3897 180.8475 0004481 87.7068 272.4684 15.26275048406909 ITASat 1 1 43786U 18099AE 26126.11887155 .00006637 00000-0 32399-3 0 9999 2 43786 97.4057 178.4805 0014043 135.2672 224.9698 15.18519735406525 EAGLET 1 1 43790U 18099AJ 26126.11626644 .00003801 00000-0 22085-3 0 9999 2 43790 97.4260 176.9021 0012639 127.0611 233.1778 15.12620011405973 ESEO 1 43792U 18099AL 26126.07099529 .00001501 00000-0 11232-3 0 9999 2 43792 97.3996 165.2588 0013351 114.4602 245.8018 15.04110632405477 JO-97 1 43803U 18099AX 26126.12327009 .00017744 00000-0 56955-3 0 9992 2 43803 97.4153 188.8507 0006926 70.9167 289.2824 15.32346816407183 Suomi 100 1 43804U 18099AY 26126.16094480 .00011004 00000-0 41118-3 0 9999 2 43804 97.4214 186.7361 0011500 74.1332 286.1173 15.27471110407005 ISAT 1 43879U 18111D 26126.25661821 .00065488 00000-0 84339-3 0 9992 2 43879 97.5902 58.4891 0008683 96.1765 264.0480 15.58787965404620 UWE-4 1 43880U 18111E 26126.23983651 .00026504 00000-0 58844-3 0 9998 2 43880 97.5862 52.7872 0010646 110.6208 249.6182 15.43629688404303 Sparrow 1 43881U 18111F 26126.09948080 .00099502 00000-0 10160-2 0 9996 2 43881 97.6127 63.3124 0007557 117.0464 243.1566 15.64707031404777 Prox-1 1 44339U 19036A 26126.06979812 .00013739 00000-0 13730-2 0 9990 2 44339 23.9965 35.3606 0006408 264.8581 95.1187 14.89635792367184 Taurus 1 1 44530U 19059C 26126.23010564 .00006536 00000-0 10571-2 0 9994 2 44530 98.6390 288.4783 0009692 87.1629 273.0685 14.71651143352477 TO-108 1 44881U 19093C 26126.24252515 .00001327 00000-0 15609-3 0 9997 2 44881 97.7540 199.4960 0012406 220.5366 139.4926 14.86454351345180 RS-44 1 44909U 19096E 26126.17807315 .00000021 00000-0 45317-4 0 9997 2 44909 82.5250 7.6232 0216480 242.4981 115.3970 12.79748118296978 SALSAT 1 46495U 20068K 26125.94722748 .00008554 00000-0 30434-3 0 9992 2 46495 97.8866 126.4631 0011705 91.7071 268.5508 15.29183475308905 CSS (TIANHE-1) 1 48274U 21035A 26126.25646878 .00022865 00000-0 24384-3 0 9996 2 48274 41.4663 217.1575 0005127 341.5414 18.5239 15.63393087286612 CUTE 1 49263U 21088D 26126.24655417 .00180422 00000-0 11157-2 0 9998 2 49263 97.4193 222.0648 0000264 2.2879 357.8387 15.76577018255913 TeikyoSat 4 1 49396U 21102B 26126.09142672 .00002278 00000-0 14620-3 0 9990 2 49396 97.3702 157.2091 0013756 80.0902 280.1879 15.09360191246379 Z-Sat 1 49399U 21102E 26126.34259968 .00004435 00000-0 22081-3 0 9995 2 49399 97.3357 162.9380 0017773 38.8567 321.3941 15.17952529247092 KOSEN 1 1 49402U 21102H 26126.05830124 .00008513 00000-0 33030-3 0 9994 2 49402 97.3217 169.0446 0013544 4.5650 355.5710 15.26266874247597 HO-113 1 50466U 21131B 26126.19420951 .00000571 00000-0 19030-3 0 9996 2 50466 98.4957 218.8161 0003398 209.1753 150.9247 14.41317630229069 SNUGLITE 2 1 52899U 22065F 26125.66491319 .00001098 00000-0 21745-3 0 9993 2 52899 98.2145 270.5867 0008178 149.4839 210.6841 14.64267740204774 UmKA 1 (RS40S) 1 57172U 23091G 26126.24050337 .00006089 00000-0 28259-3 0 9990 2 57172 97.5074 185.1082 0011241 264.4628 95.5325 15.20348317157637 CubeBel-2 (EU11S) 1 57175U 23091K 26126.22382928 .00010800 00000-0 39518-3 0 9991 2 57175 97.5070 189.0936 0008515 259.7514 100.2765 15.28199539157896 RS-38S 1 57189U 23091Z 26126.23996025 .00015273 00000-0 45547-3 0 9994 2 57189 97.5106 194.9253 0007011 208.3075 151.7788 15.34726076158256 SONATE-2 1 59112U 24043Q 26125.40299553 .00051717 00000-0 74754-3 0 9995 2 59112 97.5494 273.2935 0006293 3.5443 356.5854 15.55757930121230 GRBBeta 1 60237U 24128C 26126.07121532 .00004139 00000-0 28826-3 0 9999 2 60237 61.9914 3.9911 0046019 125.8901 234.6478 15.06300819 99925 Curium One 1 60242U 24128H 26125.78348855 .00008719 00000-0 50729-3 0 9996 2 60242 61.9801 355.8829 0045729 122.3681 238.1853 15.11840892100045 ROBUSTA-3A 1 60243U 24128J 26126.05589243 .00008273 00000-0 49243-3 0 9990 2 60243 61.9878 357.1600 0046809 119.8104 240.7658 15.11029251100054 CatSat 1 60246U 24125J 26126.02363976 .00046815 00000-0 70642-3 0 9991 2 60246 97.2128 338.1178 0022268 341.4332 18.6107 15.54330472100839 HYPERVIEW-1G (RS66S) 1 61772U 24199AP 26126.20920946 .00082721 00000-0 77349-3 0 9990 2 61772 97.2953 4.1085 0008410 81.0823 279.1390 15.66967367128089 AO-123 1 61781U 24199AY 26126.25816466 .00007574 00000-0 22403-3 0 9990 2 61781 97.3051 355.3141 0015918 98.7926 261.5121 15.35067923127499 JINJUSat 1B 1 63210U 25052A 26125.71259042 .00018355 00000-0 59185-3 0 9995 2 63210 97.4047 22.4457 0002006 197.3470 162.7704 15.32214267 63591 NUSHSAT 1 1 63211U 25052B 26125.68936610 .00021807 00000-0 65663-3 0 9999 2 63211 97.4023 22.8532 0001697 195.3175 164.8017 15.34363086 63629 TEVEL2-4 1 63213U 25052D 26125.45080194 .00027456 00000-0 85744-3 0 9991 2 63213 97.3944 21.8124 0000628 201.0686 159.0531 15.33157722 63560 TEVEL2-5 1 63214U 25052E 26125.66263016 .00020372 00000-0 64039-3 0 9995 2 63214 97.3940 21.9835 0000648 204.9776 155.1435 15.33008938 63598 TEVEL2-6 1 63215U 25052F 26125.28227672 .00026809 00000-0 84255-3 0 9995 2 63215 97.3946 21.5881 0000707 219.0822 141.0369 15.32960172 63537 TEVEL2-1 1 63217U 25052H 26125.68897122 .00019448 00000-0 62157-3 0 9992 2 63217 97.3922 21.6674 0000462 286.2100 73.9091 15.32488289 63581 TEVEL2-3 1 63218U 25052J 26125.22795703 .00024502 00000-0 78112-3 0 9990 2 63218 97.3924 21.2238 0000523 294.6711 65.4476 15.32521521 63518 TEVEL2-2 1 63219U 25052K 26125.68947843 .00019510 00000-0 62340-3 0 9994 2 63219 97.3921 21.6694 0000509 289.3218 70.7969 15.32494100 63588 TEVEL2-9 1 63237U 25052AD 26125.67911195 .00017826 00000-0 60369-3 0 9991 2 63237 97.3982 21.1221 0004279 302.6918 57.3910 15.30631391 63524 TEVEL2-7 1 63238U 25052AE 26125.64695783 .00018099 00000-0 61788-3 0 9990 2 63238 97.3985 21.0231 0004405 303.2479 56.8340 15.30367418 63514 TEVEL2-8 1 63239U 25052AF 26126.17782308 .00015314 00000-0 52341-3 0 9992 2 63239 97.3984 21.5300 0004300 301.2397 58.8422 15.30366649 63593 HYDRA-W 1 63490U 25052BL 26113.93882235 .05662091 24406-5 29537-2 0 9997 2 63490 97.3690 18.2798 0008685 203.5899 156.4993 16.20186780 62336 HADES-ICM (SO-125) 1 63492U 25052BN 26125.23154483 .00799001 00000-0 30672-2 0 9990 2 63492 97.3785 28.6812 0006494 160.2566 199.8957 15.85446468 64000 SPIRONE 1 66657U 25274H 26126.24573541 .00001657 00000-0 16309-3 0 9999 2 66657 97.7474 56.1450 0012854 147.3931 212.8085 14.93376322 23965 K-HERO 1 66660U 25274L 26126.26218391 .00001796 00000-0 17439-3 0 9993 2 66660 97.7476 56.2910 0014630 152.7947 207.4042 14.93802439 23971 SNUGLITE-III DURI 1 66661U 25274M 26126.25132946 .00001325 00000-0 12990-3 0 9999 2 66661 97.7478 56.2992 0015182 153.7165 206.4829 14.93859788 23971 SilverSat 1 66909U 98067XV 26113.44966717 .07226154 12288-4 11979-2 0 9998 2 66909 51.6027 190.0749 0007952 333.4666 26.5949 16.32457272 22308 SAKHACUBE-CHOLBON 1 67290U 25313AU 26126.15177882 .00010153 00000-0 41967-3 0 9994 2 67290 97.3937 201.7356 0010624 138.9156 221.2883 15.24126902 19574 RS95S (QMR-KWT-2) 1 67291U 25313AV 26126.17382457 .00013528 00000-0 54040-3 0 9998 2 67291 97.3938 201.8563 0010411 138.2677 221.9357 15.25204363 19585 Ten-Koh2 1 68261U 25241B 26126.10313336 .00006361 00000-0 27761-3 0 9996 2 68261 51.6500 159.8516 0006022 10.7450 349.3655 15.23362874 8491 JACK-002 1 68417U 26067B 26125.80709587 .00007016 00000-0 33966-3 0 9991 2 68417 97.4546 84.9485 0004041 79.2414 280.9275 15.18871304 5519 DISCO 2 1 68431U 26067R 26125.81782206 .00009488 00000-0 46342-3 0 9994 2 68431 97.4586 84.9519 0004010 119.2533 240.9103 15.18465244 5518 HADES-SA (SpinnyONE) 1 68446U 26067AG 26125.84501444 .00018058 00000-0 89775-3 0 9996 2 68446 97.4393 84.8318 0005928 203.0361 157.0608 15.17681074 5503 PARUS-6U1 1 68456U 26067AS 26125.78297633 .00005905 00000-0 30142-3 0 9993 2 68456 97.4534 84.8226 0004978 192.0311 168.0805 15.17079598 5508 SAL-E 1 68458U 26067AU 26126.11254248 .00007956 00000-0 40377-3 0 9997 2 68458 97.4457 85.1141 0004944 200.3156 159.7881 15.17170771 5558 FSI-SAT 2 1 68792U 26088A 26125.38199464 .00005410 00000-0 36974-3 0 9998 2 68792 97.5012 275.7411 0013362 251.8447 108.1326 15.06483613 1842 OrigamiSat 2 1 68795U 26088D 26125.96723798 .00004267 00000-0 28107-3 0 9996 2 68795 97.5028 276.3411 0014987 221.3880 138.6214 15.07957145 1937 ARICA 2 1 68796U 26088E 26125.83366696 .00005659 00000-0 37015-3 0 9997 2 68796 97.5010 276.2090 0015081 220.0416 139.9702 15.08073864 1910 WASEDA-SAT-ZERO-II 1 68797U 26088F 26125.36882996 .00001342 00000-0 90739-4 0 9990 2 68797 97.5001 275.7549 0014951 221.7249 138.2840 15.08138156 1844 MANGARO-II-Piscus 1 68798U 26088G 26125.76400299 .00005408 00000-0 34975-3 0 9993 2 68798 97.5020 276.1503 0018363 223.6934 136.2842 15.08465020 1904 IO-86 1 40931U 25360.30710720 .00000000 00000-0 12800-3 0 00 2 40931 6.0006 332.5373 0012733 338.8432 8.1437 14.79075515 01 LILIUM-4 1 71922C 26067AC 26089.50133053 -.00014632 00000+0 -74472-3 0 04 2 71922 97.4497 49.1617 0004341 5.9603 355.7042 15.16896692 16 /EX